| time (UTC) | temp F | wind direction | speed MPH | gust MPH | rain 1hr in | rain 24hr in | rain mn in | humidity % | barometer mb |
| 20260508030041 | 73 | 355 | 0.0 | 0.0 | 0.00 | 0.00 | 0.00 | 70 | 1011.6 |
| 20260508024534 | 74 | 355 | 0.0 | 0.0 | 0.00 | 0.00 | 0.00 | 70 | 1011.8 |
| 20260508023034 | 74 | 355 | 0.0 | 0.0 | 0.00 | 0.00 | 0.00 | 70 | 1011.2 |
| 20260508021540 | 75 | 273 | 0.0 | 0.0 | 0.00 | 0.00 | 0.00 | 71 | 1011.1 |
| 20260508020044 | 75 | 273 | 0.0 | 0.0 | 0.00 | 0.00 | 0.00 | 71 | 1011.3 |
| 20260508014533 | 75 | 273 | 0.0 | 0.0 | 0.00 | 0.00 | 0.00 | 70 | 1011.1 |
| 20260508013034 | 75 | 273 | 0.0 | 0.0 | 0.00 | 0.00 | 0.00 | 70 | 1011.1 |
| 20260508011532 | 76 | 279 | 0.0 | 0.0 | 0.00 | 0.00 | 0.00 | 70 | 1011.1 |
| 20260508010034 | 76 | 120 | 0.0 | 0.0 | 0.00 | 0.01 | 0.00 | 70 | 1011.2 |
| 20260508004532 | 77 | 28 | 0.0 | 0.0 | 0.00 | 0.01 | 0.00 | 68 | 1011.2 |
| 20260508003031 | 77 | 350 | 0.0 | 0.0 | 0.00 | 0.01 | 0.00 | 68 | 1011.1 |
| 20260508001556 | 77 | 360 | 0.0 | 0.0 | 0.00 | 0.01 | 0.00 | 69 | 1011.2 |
| 20260508000029 | 77 | 65 | 0.0 | 0.0 | 0.00 | 0.01 | 0.00 | 69 | 1011.3 |
| 20260507234533 | 78 | 326 | 0.0 | 0.0 | 0.00 | 0.01 | 0.00 | 68 | 1011.4 |
| 20260507233028 | 78 | 15 | 0.0 | 0.0 | 0.00 | 0.01 | 0.00 | 68 | 1011.2 |
| 20260507231534 | 79 | 310 | 0.0 | 0.0 | 0.00 | 0.01 | 0.00 | 67 | 1011.0 |
| 20260507230028 | 79 | 36 | 0.0 | 0.0 | 0.00 | 0.01 | 0.00 | 67 | 1010.7 |
| 20260507224535 | 79 | 83 | 0.0 | 0.0 | 0.00 | 0.01 | 0.00 | 69 | 1010.6 |
| 20260507223026 | 79 | 67 | 0.0 | 0.0 | 0.00 | 0.01 | 0.00 | 68 | 1010.4 |
| 20260507221525 | 79 | 45 | 0.0 | 0.0 | 0.00 | 0.01 | 0.00 | 68 | 1010.5 |
| 20260507220037 | 79 | 360 | 0.0 | 0.0 | 0.00 | 0.01 | 0.00 | 69 | 1010.8 |
| 20260507214533 | 80 | 55 | 0.0 | 0.0 | 0.00 | 0.01 | 0.00 | 68 | 1011.0 |
| 20260507213024 | 80 | 22 | 0.0 | 0.0 | 0.00 | 0.01 | 0.00 | 68 | 1011.1 |
| 20260507211524 | 80 | 71 | 0.0 | 0.0 | 0.00 | 0.01 | 0.00 | 67 | 1011.1 |
| 20260507210023 | 80 | 54 | 0.0 | 0.0 | 0.00 | 0.01 | 0.00 | 67 | 1011.3 |
| 20260507204519 | 79 | 32 | 0.0 | 0.0 | 0.00 | 0.01 | 0.00 | 69 | 1011.5 |
| 20260507203022 | 79 | 21 | 0.0 | 0.0 | 0.00 | 0.01 | 0.00 | 68 | 1011.6 |
| 20260507201519 | 79 | 46 | 0.0 | 0.0 | 0.00 | 0.01 | 0.00 | 68 | 1011.7 |
| 20260507200019 | 78 | 27 | 0.0 | 0.0 | 0.00 | 0.01 | 0.00 | 70 | 1011.9 |
| 20260507194510 | 76 | 53 | 0.0 | 0.0 | 0.00 | 0.01 | 0.00 | 71 | 1011.9 |
| 20260507193008 | 76 | 23 | 0.0 | 0.0 | 0.00 | 0.01 | 0.00 | 72 | 1012.3 |
| 20260507191505 | 75 | 340 | 0.0 | 0.0 | 0.00 | 0.01 | 0.00 | 72 | 1012.7 |
| 20260507190101 | 76 | 347 | 0.0 | 0.0 | 0.00 | 0.01 | 0.00 | 71 | 1012.9 |
| 20260507184604 | 74 | 9 | 0.0 | 0.0 | 0.00 | 0.01 | 0.00 | 73 | 1013.0 |
| 20260507183054 | 74 | 32 | 0.0 | 0.0 | 0.00 | 0.01 | 0.00 | 74 | 1013.1 |
| 20260507181601 | 74 | 32 | 0.0 | 0.0 | 0.00 | 0.01 | 0.00 | 74 | 1013.1 |
| 20260507180051 | 74 | 13 | 0.0 | 0.0 | 0.00 | 0.01 | 0.00 | 73 | 1013.4 |
| 20260507174553 | 73 | 345 | 0.0 | 0.0 | 0.00 | 0.01 | 0.00 | 74 | 1013.5 |
| 20260507173046 | 72 | 321 | 0.0 | 0.0 | 0.00 | 0.01 | 0.00 | 75 | 1013.8 |
| 20260507171543 | 71 | 10 | 0.0 | 0.0 | 0.00 | 0.01 | 0.00 | 76 | 1014.0 |
| 20260507170046 | 70 | 325 | 0.0 | 0.0 | 0.00 | 0.01 | 0.00 | 77 | 1014.1 |
| 20260507164540 | 69 | 14 | 0.0 | 0.0 | 0.00 | 0.01 | 0.00 | 78 | 1014.0 |
| 20260507163040 | 69 | 69 | 0.0 | 0.0 | 0.00 | 0.01 | 0.00 | 78 | 1013.9 |
| 20260507161540 | 68 | 344 | 0.0 | 0.0 | 0.00 | 0.01 | 0.00 | 79 | 1013.6 |
| 20260507160038 | 67 | 34 | 0.0 | 0.0 | 0.00 | 0.01 | 0.00 | 81 | 1013.3 |
| 20260507154537 | 66 | 13 | 0.0 | 0.0 | 0.00 | 0.01 | 0.00 | 82 | 1013.5 |
| 20260507153043 | 66 | 311 | 0.0 | 0.0 | 0.00 | 0.01 | 0.00 | 83 | 1013.7 |
| 20260507151537 | 65 | 338 | 0.0 | 0.0 | 0.00 | 0.01 | 0.00 | 83 | 1013.8 |
| 20260507150040 | 65 | 5 | 0.0 | 0.0 | 0.00 | 0.01 | 0.00 | 83 | 1013.7 |
| 20260507144535 | 65 | 77 | 0.0 | 0.0 | 0.00 | 0.01 | 0.00 | 83 | 1013.9 |
| 20260507143036 | 65 | 13 | 0.0 | 0.0 | 0.00 | 0.01 | 0.00 | 84 | 1013.5 |
| 20260507141533 | 65 | 34 | 0.0 | 0.0 | 0.00 | 0.01 | 0.00 | 83 | 1013.3 |
| 20260507140034 | 65 | 355 | 0.0 | 0.0 | 0.00 | 0.01 | 0.00 | 84 | 1013.0 |
| 20260507134534 | 65 | 119 | 0.0 | 0.0 | 0.00 | 0.01 | 0.00 | 86 | 1013.1 |
| 20260507133032 | 65 | 344 | 0.0 | 0.0 | 0.00 | 0.01 | 0.00 | 86 | 1013.6 |
| 20260507131543 | 65 | 5 | 0.0 | 0.0 | 0.00 | 0.01 | 0.00 | 86 | 1013.5 |
| 20260507130029 | 65 | 9 | 0.0 | 0.0 | 0.00 | 0.01 | 0.00 | 86 | 1013.6 |
| 20260507124526 | 66 | 48 | 0.0 | 0.0 | 0.00 | 0.01 | 0.00 | 86 | 1013.7 |
| 20260507123023 | 66 | 348 | 0.0 | 0.0 | 0.00 | 0.01 | 0.00 | 86 | 1012.9 |
| 20260507121520 | 66 | 360 | 0.0 | 0.0 | 0.00 | 0.01 | 0.00 | 86 | 1012.5 |
| 20260507120034 | 66 | 360 | 0.0 | 0.0 | 0.00 | 0.01 | 0.00 | 85 | 1012.4 |
| 20260507114518 | 67 | 355 | 0.0 | 0.0 | 0.00 | 0.01 | 0.00 | 85 | 1012.1 |
| 20260507113014 | 67 | 355 | 0.0 | 0.0 | 0.00 | 0.01 | 0.00 | 85 | 1011.8 |
| 20260507111513 | 67 | 28 | 0.0 | 0.0 | 0.00 | 0.01 | 0.00 | 86 | 1011.4 |
| 20260507110013 | 67 | 360 | 0.0 | 0.0 | 0.00 | 0.01 | 0.00 | 86 | 1011.6 |
| 20260507104512 | 67 | 355 | 0.0 | 0.0 | 0.00 | 0.01 | 0.00 | 86 | 1011.4 |
| 20260507103010 | 67 | 341 | 0.0 | 0.0 | 0.00 | 0.01 | 0.00 | 85 | 1011.2 |
| 20260507101510 | 67 | 360 | 0.0 | 0.0 | 0.00 | 0.01 | 0.00 | 86 | 1011.2 |
| 20260507100009 | 67 | 11 | 0.0 | 0.0 | 0.00 | 0.01 | 0.00 | 86 | 1011.1 |
| 20260507094508 | 67 | 334 | 0.0 | 0.0 | 0.00 | 0.01 | 0.00 | 86 | 1010.7 |
| 20260507093007 | 67 | 17 | 0.0 | 0.0 | 0.00 | 0.01 | 0.00 | 85 | 1010.4 |
| 20260507091506 | 67 | 25 | 0.0 | 0.0 | 0.00 | 0.01 | 0.00 | 85 | 1010.5 |
| 20260507090009 | 68 | 36 | 0.0 | 0.0 | 0.00 | 0.01 | 0.00 | 84 | 1010.5 |
| 20260507084510 | 68 | 360 | 0.0 | 0.0 | 0.00 | 0.01 | 0.00 | 84 | 1010.8 |
| 20260507083004 | 68 | 9 | 0.0 | 0.0 | 0.00 | 0.01 | 0.00 | 84 | 1010.7 |
| 20260507081504 | 68 | 360 | 0.0 | 0.0 | 0.00 | 0.01 | 0.00 | 84 | 1010.5 |
| 20260507080006 | 68 | 5 | 0.0 | 0.0 | 0.00 | 0.01 | 0.00 | 84 | 1010.5 |
| 20260507074501 | 68 | 5 | 0.0 | 0.0 | 0.00 | 0.01 | 0.00 | 84 | 1010.6 |
| 20260507073102 | 68 | 355 | 0.0 | 0.0 | 0.00 | 0.01 | 0.00 | 84 | 1010.9 |
| 20260507071600 | 68 | 331 | 0.0 | 0.0 | 0.00 | 0.01 | 0.00 | 83 | 1010.9 |
| 20260507070059 | 68 | 342 | 0.0 | 0.0 | 0.00 | 0.01 | 0.00 | 83 | 1011.3 |
| 20260507064556 | 68 | 349 | 0.0 | 0.0 | 0.00 | 0.01 | 0.00 | 83 | 1011.1 |
| 20260507063057 | 69 | 355 | 0.0 | 0.0 | 0.00 | 0.01 | 0.00 | 83 | 1010.6 |
| 20260507061553 | 69 | 355 | 0.0 | 0.0 | 0.00 | 0.01 | 0.00 | 82 | 1011.0 |
| 20260507060050 | 70 | 350 | 0.0 | 0.0 | 0.00 | 0.01 | 0.00 | 82 | 1010.6 |
| 20260507054626 | 70 | 22 | 0.0 | 0.0 | 0.00 | 0.01 | 0.00 | 82 | 1010.7 |
| 20260507053051 | 70 | 5 | 0.0 | 0.0 | 0.00 | 0.01 | 0.00 | 82 | 1010.3 |
| 20260507051545 | 71 | 338 | 0.0 | 0.0 | 0.00 | 0.01 | 0.00 | 81 | 1010.4 |
| 20260507050042 | 71 | 11 | 0.0 | 0.0 | 0.00 | 0.01 | 0.01 | 82 | 1010.6 |
| 20260507044548 | 71 | 355 | 0.0 | 0.0 | 0.00 | 0.01 | 0.01 | 82 | 1010.5 |
| 20260507043039 | 71 | 341 | 0.0 | 0.0 | 0.00 | 0.01 | 0.01 | 81 | 1010.4 |
| 20260507041541 | 72 | 355 | 0.0 | 0.0 | 0.00 | 0.01 | 0.01 | 81 | 1010.4 |
| 20260507040038 | 72 | 360 | 0.0 | 0.0 | 0.00 | 0.01 | 0.01 | 82 | 1010.5 |
| 20260507034535 | 72 | 300 | 0.0 | 0.0 | 0.00 | 0.01 | 0.01 | 81 | 1010.3 |
| 20260507033033 | 73 | 345 | 0.0 | 0.0 | 0.00 | 0.01 | 0.01 | 81 | 1010.2 |
| 20260507031529 | 73 | 313 | 0.0 | 0.0 | 0.00 | 0.01 | 0.01 | 81 | 1009.7 |